User: anonymous   Login
Location: Unspecified
(0.0000°N, 0.0000°E)
Time: 14:50:14
(UTC+00:00)
Language:

LEMUR 2 NICK-ALLAIN - Orbit

View from above orbital plane
View from above orbital plane
View from above satellite
View from above satellite

Ground track
Ground track

The orbit data is extracted from the following two-line orbital elements,

1 41488U 98067JJ  17094.87844965 +.04570311 +12034-4 +11307-2 0  9996
2 41488 051.6143 005.3663 0009819 231.1408 129.3884 16.28244348050480
Epoch (UTC): 04 April 2017 21:04:58
Eccentricity: 0.0009819
inclination: 51.6143°
perigee height: 191 km
apogee height: 204 km
right ascension of ascending node: 5.3663°
argument of perigee: 231.1408°
revolutions per day: 16.28244348
mean anomaly at epoch: 129.3884°
orbit number at epoch: 5048

The dashed part of the orbit path shows where the satellite is in the earth's shadow,  

DLR